Погода в Малышенке

Россия / Тюменская область     56°36′55″N   68°35′09″E
темп.,
°C
ветер,
м/с
пор.,
м/с
влажн.,
%
обл.,
%
осадки,
мм/ч
давл.,
гПа
погр.,
м
8 мая, сб
сб823:00+11з34485 0.0 102043
02:00+10зюз33505 0.0 102035
05:00+10зюз335517 0.0 102034
08:00+16юз34403 0.0 1020294
11:00+20ююз33285 0.0 10191474
14:00+22ю23227 0.0 10182198
17:00+22ююв2222100 0.0 10172454
20:00+18вюв1132100 0.0 101612
9 мая, вс
вс923:00+15ю2240100 0.0 101617
02:00+14вюв2242100 0.0 101610
05:00+13в2347100 0.0 101723
08:00+18вюв3639100 0.0 1017326
11:00+21в6732100 0.0 10171613
14:00+22в7836100 0.0 10172612
17:00+22в7834100 0.0 10172434
20:00+18всв61144100 0.0 1019377
10 мая, пн
пн1023:00+15всв61245100 0.0 1020478
02:00+12всв51148100 0.0 1021377
05:00+10св51053100 0.0 1022325
08:00+12всв6944100 0.0 1023811
11:00+16всв683271 0.0 10231499
14:00+18всв56285 0.0 10231918
17:00+19св46290 0.0 10221963
20:00+15всв22425 0.0 102312
11 мая, вт
вт1123:00+11всв22490 0.0 102314
02:00+9ссв11550 0.0 102310
05:00+8ссв22590 0.0 102410
08:00+14св22420 0.0 1023389
11:00+18с3429100 0.0 10231856
14:00+20с3527100 0.0 10212120
17:00+20ссз3525100 0.0 10202440
20:00+16сз3539100 0.0 102089
12 мая, ср
ср1223:00+14ссз5973100 0.3 1021349
02:00+12зсз4888100 1.1 1020338
05:00+10сз479093 3.6 1021315
08:00+10ссз5684100 0.3 1022490
11:00+13с556954 0.3 1022789
14:00+17ссз555370 0.0 10221479
17:00+16ссз655470 0.0 10231307
20:00+13ссз4768100 0.0 1024262